Location: Limerick
(52.6650°N, 8.6230°W)
Time: 17:24:07
(UTC+01:00)

Amateur Radio Satellites - All Passes

Search period start: 20 July 2017 16:54
Search period end: 21 July 2017 16:54
Location: Limerick, 52.6650°N, 8.6230°W

Satellite Date Start Highest point End Downlink Frequencies (MHz)
Time Altitude Azimuth
DX 1 20 Jul 16:54:15 16:56:50 16° 306° (NW) 16:59:26 434.975-435.025
AO-85 20 Jul 16:54:36 16:58:16 37° 325° (NW) 17:01:58 145.980
AO-7 20 Jul 17:00:08 17:07:58 43° 262° (W) 17:15:52 .
ITAMSAT 1 20 Jul 17:02:29 17:07:06 31° 266° (W) 17:11:45 435.822/435.867
XW-2B 20 Jul 17:04:28 17:05:09 10° 55° (NE) 17:05:51 145.730 - 145.750
KKS-1 20 Jul 17:11:53 17:13:41 12° 86° (E) 17:15:29 437.445
BEESAT 20 Jul 17:13:30 17:18:17 83° 288° (WNW) 17:23:02 436.000
XW-2C 20 Jul 17:19:54 17:22:00 15° 58° (ENE) 17:24:07 145.795 - 145.815
ITUPSAT 1 20 Jul 17:22:59 17:27:45 71° 289° (WNW) 17:32:29 437.325
MOZHAYETS 4 20 Jul 17:25:45 17:30:20 79° 287° (WNW) 17:34:53
PCSat 20 Jul 17:35:02 17:38:21 17° 255° (WSW) 17:41:40 145.827
LilacSat-2 20 Jul 17:35:53 17:38:45 21° 62° (ENE) 17:41:38 437.200
NO-84 20 Jul 17:36:44 17:40:19 59° 3° (N) 17:44:13 435.350 FM
CUBESAT XI-V 20 Jul 17:45:32 17:49:56 40° 97° (E) 17:54:20 437.345
BEESAT 3 20 Jul 17:47:10 17:50:25 23° 336° (NNW) 17:53:41 437.485
NUDT-PHONESAT 20 Jul 17:49:04 17:51:50 20° 62° (ENE) 17:54:36 437.300
RS-15 20 Jul 17:54:25 18:06:20 61° 119° (ESE) 18:18:19 29.354- 29.394
KAITUO 1B 20 Jul 17:54:59 17:57:58 23° 64° (ENE) 18:00:58 145.475/437.950
STARS 20 Jul 17:56:43 17:59:14 15° 88° (E) 18:01:42 437.465
XW-2F 20 Jul 18:00:46 18:04:08 31° 66° (ENE) 18:07:28 145.980 - 146.000
SO-50 20 Jul 18:07:25 18:10:44 20° 245° (WSW) 18:14:03 436.795
HO-68 20 Jul 18:09:36 18:15:39 31° 51° (NE) 18:21:42 435.675
CUTE-I 20 Jul 18:09:39 18:14:47 48° 65° (ENE) 18:19:57 437.470
DOVE 4 20 Jul 18:13:15 18:18:05 82° 257° (WSW) 18:23:15 437.250
BEESAT 2 20 Jul 18:13:52 18:17:20 26° 332° (NNW) 18:20:50 435.950
O/OREOS (USA 219) 20 Jul 18:25:01 18:29:25 54° 305° (NW) 18:33:51 437.305
XW-2D 20 Jul 18:25:04 18:28:46 60° 72° (ENE) 18:32:29 145.860 - 145.880
XW-2B 20 Jul 18:34:54 18:38:39 74° 74° (ENE) 18:42:25 145.730 - 145.750
AO-85 20 Jul 18:37:11 18:39:42 16° 349° (N) 18:42:16 145.980
UWE-3 20 Jul 18:43:25 18:44:21 11° 51° (NE) 18:45:16 435.000/436.395/437.385
KKS-1 20 Jul 18:46:27 18:50:59 82° 106° (ESE) 18:55:28 437.445
CUTE 1.7 + AOD 2 20 Jul 18:48:03 18:51:25 24° 62° (ENE) 18:54:48 437.475
XW-2C 20 Jul 18:51:58 18:55:44 73° 258° (WSW) 18:59:30 145.795 - 145.815
BEESAT 20 Jul 18:52:29 18:55:23 16° 307° (NW) 18:58:16 436.000
XW-2A 20 Jul 18:59:31 19:01:43 16° 61° (ENE) 19:03:56 145.665 - 145.685
ITUPSAT 1 20 Jul 19:02:17 19:04:47 14° 309° (NW) 19:07:17 437.325
MOZHAYETS 4 20 Jul 19:04:20 19:06:47 15° 307° (NW) 19:09:15
CUBEBUG 2 20 Jul 19:06:51 19:10:35 24° 61° (ENE) 19:14:16 437.445
LilacSat-2 20 Jul 19:09:10 19:12:48 45° 261° (W) 19:16:27 437.200
ZACube-1 20 Jul 19:09:35 19:10:27 11° 51° (NE) 19:11:20 437.345
SEEDS 20 Jul 19:10:45 19:14:11 26° 63° (ENE) 19:17:39 437.485
NO-84 20 Jul 19:14:11 19:17:59 79° 205° (SSW) 19:22:06 435.350 FM
NUDT-PHONESAT 20 Jul 19:21:56 19:25:29 44° 261° (W) 19:29:03 437.300
CUBESAT XI-V 20 Jul 19:23:07 19:27:14 32° 296° (WNW) 19:31:21 437.345
BEESAT 3 20 Jul 19:26:59 19:29:19 15° 359° (N) 19:31:40 437.485
KAITUO 1B 20 Jul 19:28:22 19:31:50 37° 262° (W) 19:35:18 145.475/437.950
YUBILEINY 20 Jul 19:30:32 19:38:32 41° 85° (E) 19:46:34 435.215
STARS 20 Jul 19:31:42 19:36:10 82° 287° (WNW) 19:40:35 437.465
XW-2F 20 Jul 19:35:03 19:38:17 27° 265° (W) 19:41:32 145.980 - 146.000
Oscar 11 20 Jul 19:43:54 19:46:15 14° 55° (NE) 19:48:35 .
CUTE-I 20 Jul 19:50:11 19:55:01 33° 265° (W) 19:59:53 437.470
AO-73 20 Jul 19:50:20 19:53:34 20° 59° (ENE) 19:56:45 145.935
BEESAT 2 20 Jul 19:53:55 19:56:20 15° 355° (N) 19:58:47 435.950
DOVE 4 20 Jul 19:54:08 19:56:40 14° 277° (W) 19:59:16 437.250
HO-68 20 Jul 19:55:35 20:02:47 80° 253° (WSW) 20:10:02 435.675
XW-2D 20 Jul 20:01:06 20:03:20 15° 271° (W) 20:05:35 145.860 - 145.880
STRAND 1 20 Jul 20:01:22 20:05:08 20° 89° (E) 20:08:51 437.568
RS-15 20 Jul 20:06:46 20:19:03 65° 327° (NNW) 20:31:18 29.354- 29.394
O/OREOS (USA 219) 20 Jul 20:07:29 20:09:52 14° 327° (NNW) 20:12:15 437.305
AAUSAT CUBESAT 2 20 Jul 20:10:05 20:13:59 45° 69° (ENE) 20:17:57 437.432
XW-2B 20 Jul 20:11:39 20:13:20 13° 273° (W) 20:15:01 145.730 - 145.750
UWE-3 20 Jul 20:15:24 20:19:54 55° 70° (ENE) 20:24:19 435.000/436.395/437.385
AO-85 20 Jul 20:18:52 20:21:33 17° 14° (NNE) 20:24:19 145.980
CUTE 1.7 + AOD 2 20 Jul 20:22:58 20:27:02 47° 261° (W) 20:31:07 437.475
KKS-1 20 Jul 20:24:02 20:27:00 18° 305° (NW) 20:29:57 437.445
DELFI C3 20 Jul 20:29:55 20:30:48 11° 53° (NE) 20:31:41 145.870
XW-2A 20 Jul 20:30:51 20:34:09 48° 260° (W) 20:37:29 145.665 - 145.685
ZACube-1 20 Jul 20:41:29 20:45:53 57° 71° (ENE) 20:50:11 437.345
CUBEBUG 2 20 Jul 20:42:13 20:46:53 59° 259° (W) 20:51:30 437.445
SEEDS 20 Jul 20:45:44 20:49:42 42° 262° (W) 20:53:42 437.485
NO-84 20 Jul 20:51:58 20:55:11 23° 222° (SW) 20:58:32 435.350 FM
BEESAT 3 20 Jul 21:05:04 21:08:15 22° 23° (NNE) 21:11:25 437.485
STARS 20 Jul 21:09:24 21:11:50 15° 307° (NW) 21:14:15 437.465
Oscar 11 20 Jul 21:17:26 21:21:44 86° 80° (E) 21:26:05 .
AO-73 20 Jul 21:25:00 21:29:25 65° 257° (WSW) 21:33:47 145.935
YUBILEINY 20 Jul 21:26:20 21:35:04 61° 288° (WNW) 21:43:50 435.215
BEESAT 2 20 Jul 21:32:29 21:35:30 19° 19° (NNE) 21:38:31 435.950
STRAND 1 20 Jul 21:39:44 21:44:52 74° 289° (WNW) 21:49:58 437.568
AAUSAT CUBESAT 2 20 Jul 21:46:24 21:49:40 23° 268° (W) 21:52:59 437.432
HO-68 20 Jul 21:46:40 21:51:39 20° 274° (W) 21:56:40 435.675
UWE-3 20 Jul 21:53:01 21:56:39 23° 269° (W) 22:00:15 435.000/436.395/437.385
AO-85 20 Jul 21:59:02 22:02:54 42° 37° (NE) 22:06:59 145.980
DELFI C3 20 Jul 22:00:55 22:04:49 69° 73° (ENE) 22:08:46 145.870
EO-88 20 Jul 22:12:23 22:15:59 59° 72° (ENE) 22:19:35 145.990 - 145.960
ZACube-1 20 Jul 22:19:06 22:22:29 21° 269° (W) 22:25:50 437.345
RS-15 20 Jul 22:22:15 22:34:06 47° 359° (N) 22:45:41 29.354- 29.394
LO-87 20 Jul 22:35:01 22:37:40 19° 62° (ENE) 22:40:19 145.935 - 145.965
PRISM 20 Jul 22:40:18 22:42:57 16° 90° (E) 22:45:34 437.425
UNISAT 6 20 Jul 22:41:45 22:45:04 20° 90° (E) 22:48:19 437.425
BEESAT 3 20 Jul 22:42:24 22:46:28 74° 46° (NE) 22:50:27 437.485
FO-29 20 Jul 22:43:09 22:50:23 45° 94° (E) 22:56:53 435.910
Oscar 11 20 Jul 22:56:25 22:58:31 13° 274° (W) 23:00:36 .
BEESAT 2 20 Jul 23:10:01 23:14:03 56° 41° (NE) 23:18:04 435.950
ESTCUBE 1 20 Jul 23:11:35 23:15:36 34° 64° (ENE) 23:19:39 437.505/2401.250
STRAND 1 20 Jul 23:20:13 23:23:14 16° 310° (NW) 23:26:17 437.568
Tancredo 1 20 Jul 23:22:05 23:24:06 17° 146° (SSE) 23:26:09 437.200
ISS 20 Jul 23:24:34 23:24:59 10° 138° (SE) 23:25:25 437.550
TIGRISAT 20 Jul 23:27:00 23:31:18 47° 99° (E) 23:35:28 435.000
YUBILEINY 20 Jul 23:28:11 23:34:08 19° 315° (NW) 23:40:08 435.215
DELFI C3 20 Jul 23:37:50 23:40:04 14° 272° (W) 23:42:17 145.870
AO-85 20 Jul 23:39:28 23:43:18 38° 236° (WSW) 23:47:21 145.980
EO-88 20 Jul 23:47:57 23:50:02 14° 271° (W) 23:52:06 145.990 - 145.960
LO-87 21 Jul 00:07:17 00:10:49 47° 261° (W) 00:14:22 145.935 - 145.965
M-CUBED/EXP-1 PRIME 21 Jul 00:08:28 00:12:48 49° 106° (ESE) 00:17:18 437.505
nSIGHT-1 21 Jul 00:09:07 00:11:36 20° 147° (SSE) 00:14:06 .
POLYITAN 1 21 Jul 00:09:31 00:10:38 11° 85° (E) 00:11:44 437.675
SPROUT 21 Jul 00:14:14 00:18:12 37° 66° (ENE) 00:22:12 437.525
PRISM 21 Jul 00:14:30 00:18:40 68° 288° (WNW) 00:22:49 437.425
UNISAT 6 21 Jul 00:17:49 00:22:10 56° 290° (WNW) 00:26:24 437.425
VELOX 1 21 Jul 00:19:50 00:23:56 39° 66° (ENE) 00:28:06 145.980
BEESAT 3 21 Jul 00:20:47 00:23:35 18° 245° (WSW) 00:26:21 437.485
QB50P2 21 Jul 00:21:01 00:23:36 16° 88° (E) 00:26:09 145.880/145.840
50 SAT 21 Jul 00:25:21 00:27:39 17° 61° (ENE) 00:29:58 437.505
FO-29 21 Jul 00:28:13 00:35:32 52° 298° (WNW) 00:42:10 435.910
EO-79 21 Jul 00:34:37 00:37:40 19° 90° (E) 00:40:42 145.935-145.965
RS-15 21 Jul 00:36:57 00:49:14 63° 31° (NNE) 01:00:57 29.354- 29.394
NANOSAT C BR1 21 Jul 00:38:06 00:41:07 19° 90° (E) 00:44:06 145.865
DX 1 21 Jul 00:42:39 00:46:14 25° 61° (ENE) 00:49:51 434.975-435.025
BEESAT 2 21 Jul 00:48:12 00:51:34 25° 242° (WSW) 00:54:54 435.950
ESTCUBE 1 21 Jul 00:48:17 00:52:24 36° 264° (W) 00:56:33 437.505/2401.250
AIST 2D 21 Jul 00:55:15 00:58:42 60° 101° (E) 01:02:09 435.315
Tancredo 1 21 Jul 00:56:12 00:59:06 53° 165° (SSE) 01:02:01 437.200
ISS 21 Jul 00:57:43 01:00:46 37° 156° (SSE) 01:03:48 437.550
TIGRISAT 21 Jul 01:04:07 01:07:46 25° 299° (WNW) 01:11:20 435.000
O/OREOS (USA 219) 21 Jul 01:10:47 01:14:29 24° 44° (NE) 01:18:11 437.305
UKube-1 21 Jul 01:35:11 01:39:22 50° 68° (ENE) 01:43:34 .
POLYITAN 1 21 Jul 01:42:54 01:47:10 81° 104° (ESE) 01:51:22 437.675
M-CUBED/EXP-1 PRIME 21 Jul 01:43:14 01:47:02 29° 304° (WNW) 01:50:58 437.505
nSIGHT-1 21 Jul 01:44:25 01:47:35 59° 167° (SSE) 01:50:48 .
DUCHIFAT 1 21 Jul 01:48:13 01:52:26 75° 103° (ESE) 01:56:37 145.980
Oscar 19 21 Jul 01:49:48 01:52:44 15° 86° (E) 01:55:40 437.125/150
SPROUT 21 Jul 01:50:23 01:54:10 30° 265° (W) 01:58:00 437.525
PRISM 21 Jul 01:51:44 01:53:11 12° 308° (NW) 01:54:38 437.425
QB50P2 21 Jul 01:55:39 01:59:54 72° 288° (WNW) 02:04:05 145.880/145.840
VELOX 1 21 Jul 01:56:35 02:00:29 30° 265° (W) 02:04:26 145.980
50 SAT 21 Jul 01:56:48 02:00:06 47° 260° (W) 02:03:26 437.505
UNISAT 6 21 Jul 01:57:07 01:57:55 10° 311° (NW) 01:58:44 437.425
EO-79 21 Jul 02:09:38 02:13:49 58° 289° (WNW) 02:17:56 145.935-145.965
NANOSAT C BR1 21 Jul 02:13:02 02:17:12 58° 290° (WNW) 02:21:19 145.865
FO-29 21 Jul 02:14:20 02:18:53 17° 321° (NW) 02:23:15 435.910
DX 1 21 Jul 02:17:59 02:22:12 48° 260° (W) 02:26:28 434.975-435.025
AIST 2D 21 Jul 02:29:31 02:31:31 15° 300° (WNW) 02:33:30 435.315
Tancredo 1 21 Jul 02:31:28 02:34:26 72° 184° (S) 02:37:24 437.200
ISS 21 Jul 02:33:46 02:37:02 74° 177° (S) 02:40:18 437.550
BUGSAT 1 21 Jul 02:37:26 02:41:37 76° 104° (ESE) 02:45:43 437.445
BEESAT 21 Jul 02:48:21 02:52:42 36° 64° (ENE) 02:57:05 436.000
O/OREOS (USA 219) 21 Jul 02:49:51 02:54:18 64° 245° (WSW) 02:58:44 437.305
RS-15 21 Jul 02:50:06 03:02:02 64° 240° (WSW) 03:13:21 29.354- 29.394
MOZHAYETS 4 21 Jul 02:56:48 03:00:47 30° 63° (ENE) 03:04:47
ITUPSAT 1 21 Jul 02:57:56 03:02:27 42° 65° (ENE) 03:06:58 437.325
AO-7 21 Jul 03:04:56 03:07:02 11° 77° (ENE) 03:09:08 .
UKube-1 21 Jul 03:12:13 03:15:39 23° 267° (W) 03:19:07 .
Gurwin Techsat 1B 21 Jul 03:13:30 03:18:39 46° 99° (E) 03:23:45 435.225
POLYITAN 1 21 Jul 03:19:48 03:22:24 16° 304° (NW) 03:25:00 437.675
CUBESAT XI-V 21 Jul 03:19:50 03:22:14 14° 53° (NE) 03:24:39 437.345
nSIGHT-1 21 Jul 03:20:41 03:23:54 72° 188° (S) 03:27:08 .
DUCHIFAT 1 21 Jul 03:24:53 03:27:37 17° 303° (WNW) 03:30:19 145.980
Oscar 19 21 Jul 03:27:40 03:32:51 85° 105° (ESE) 03:38:02 437.125/150
ITAMSAT 1 21 Jul 03:32:13 03:32:52 10° 82° (E) 03:33:31 435.822/435.867
QB50P2 21 Jul 03:33:14 03:34:56 12° 307° (NW) 03:36:39 145.880/145.840
YUBILEINY 21 Jul 03:38:19 03:39:01 10° 25° (NNE) 03:39:42 435.215
EO-79 21 Jul 03:48:10 03:48:42 10° 310° (NW) 03:49:13 145.935-145.965
NANOSAT C BR1 21 Jul 03:51:28 03:52:03 10° 309° (NW) 03:52:38 145.865
Tancredo 1 21 Jul 04:06:56 04:09:39 32° 204° (SSW) 04:12:22 437.200
ISS 21 Jul 04:10:12 04:13:25 54° 196° (SSW) 04:16:36 437.550
BUGSAT 1 21 Jul 04:13:49 04:16:28 17° 303° (WNW) 04:19:04 437.445
KKS-1 21 Jul 04:14:34 04:18:12 25° 60° (ENE) 04:21:50 437.445
BEESAT 21 Jul 04:26:03 04:30:29 37° 263° (W) 04:34:57 436.000
MOZHAYETS 4 21 Jul 04:33:29 04:37:50 42° 262° (W) 04:42:13
ITUPSAT 1 21 Jul 04:36:07 04:40:24 32° 265° (W) 04:44:42 437.325
Gurwin Techsat 1B 21 Jul 04:53:42 04:58:30 35° 299° (WNW) 05:03:17 435.225
AO-7 21 Jul 04:53:59 05:02:05 49° 100° (E) 05:10:06 .
CUBESAT XI-V 21 Jul 04:54:18 04:58:52 76° 74° (ENE) 05:03:30 437.345
nSIGHT-1 21 Jul 04:57:08 05:00:05 32° 206° (SSW) 05:03:01 .
STARS 21 Jul 04:58:14 05:02:01 28° 61° (ENE) 05:05:48 437.465
RS-15 21 Jul 05:04:23 05:11:49 19° 265° (W) 05:19:03 29.354- 29.394
Oscar 19 21 Jul 05:07:54 05:11:36 20° 306° (NW) 05:15:18 437.125/150
ITAMSAT 1 21 Jul 05:08:16 05:13:28 60° 102° (ESE) 05:18:36 435.822/435.867
YUBILEINY 21 Jul 05:32:18 05:39:50 30° 56° (ENE) 05:47:16 435.215
ISS 21 Jul 05:47:06 05:49:26 18° 215° (SW) 05:51:44 437.550
STRAND 1 21 Jul 05:47:40 05:49:28 12° 46° (NE) 05:51:16 437.568
KKS-1 21 Jul 05:50:06 05:54:29 53° 259° (W) 05:58:54 437.445
DOVE 4 21 Jul 06:06:26 06:10:36 23° 89° (E) 06:14:40 437.250
CUTE-I 21 Jul 06:22:41 06:24:26 11° 82° (E) 06:26:09 437.470
CUBESAT XI-V 21 Jul 06:33:53 06:36:49 17° 272° (W) 06:39:46 437.345
STARS 21 Jul 06:33:56 06:38:11 44° 261° (W) 06:42:28 437.465
LilacSat-2 21 Jul 06:37:30 06:39:23 13° 88° (E) 06:41:15 437.200
PCSat 21 Jul 06:38:23 06:42:53 27° 112° (ESE) 06:47:24 145.827
AO-7 21 Jul 06:46:56 06:55:00 54° 303° (WNW) 07:03:01 .
NUDT-PHONESAT 21 Jul 06:47:45 06:49:11 12° 87° (E) 06:50:38 437.300
ITAMSAT 1 21 Jul 06:48:15 06:52:37 27° 302° (WNW) 06:56:57 435.822/435.867
KAITUO 1B 21 Jul 06:54:17 06:56:24 14° 89° (E) 06:58:30 145.475/437.950
XW-2F 21 Jul 07:01:01 07:03:52 20° 92° (E) 07:06:42 145.980 - 146.000
HO-68 21 Jul 07:18:24 07:22:16 15° 82° (E) 07:26:05 435.675
FO-29 21 Jul 07:20:00 07:24:05 15° 36° (NE) 07:28:10 435.910
STRAND 1 21 Jul 07:22:35 07:27:34 51° 66° (ENE) 07:32:33 437.568
XW-2D 21 Jul 07:25:43 07:29:16 38° 98° (E) 07:32:48 145.860 - 145.880
YUBILEINY 21 Jul 07:28:59 07:37:50 85° 261° (W) 07:46:34 435.215
XW-2B 21 Jul 07:35:34 07:39:14 46° 100° (E) 07:42:52 145.730 - 145.750
DOVE 4 21 Jul 07:43:27 07:48:46 70° 288° (WNW) 07:53:58 437.250
XW-2C 21 Jul 07:52:36 07:56:22 73° 102° (ESE) 08:00:07 145.795 - 145.815
CUTE-I 21 Jul 08:00:12 08:05:34 64° 103° (ESE) 08:10:53 437.470
CUTE 1.7 + AOD 2 21 Jul 08:02:07 08:05:17 20° 91° (E) 08:08:27 437.475
LilacSat-2 21 Jul 08:10:21 08:14:07 70° 288° (WNW) 08:17:53 437.200
NUDT-PHONESAT 21 Jul 08:19:54 08:23:35 74° 286° (WNW) 08:27:14 437.300
PCSat 21 Jul 08:20:28 08:25:53 69° 312° (NW) 08:31:21 145.827
SEEDS 21 Jul 08:23:37 08:26:54 21° 91° (E) 08:30:09 437.485
SO-50 21 Jul 08:26:11 08:30:09 31° 120° (ESE) 08:34:08 436.795
KAITUO 1B 21 Jul 08:27:07 08:30:48 61° 287° (WNW) 08:34:27 145.475/437.950
CUBEBUG 2 21 Jul 08:27:48 08:31:02 20° 89° (E) 08:34:12 437.445
XW-2F 21 Jul 08:34:39 08:38:12 42° 291° (WNW) 08:41:45 145.980 - 146.000
AO-7 21 Jul 08:40:24 08:46:05 21° 327° (NNW) 08:51:46 .
TIGRISAT 21 Jul 08:56:37 08:59:21 16° 55° (NE) 09:02:03 435.000
FO-29 21 Jul 09:00:06 09:07:12 43° 59° (ENE) 09:14:29 435.910
XW-2D 21 Jul 09:00:16 09:03:18 24° 296° (WNW) 09:06:20 145.860 - 145.880
Oscar 11 21 Jul 09:00:47 09:02:02 11° 85° (E) 09:03:16 .
STRAND 1 21 Jul 09:02:31 09:06:59 29° 266° (W) 09:11:30 437.568
HO-68 21 Jul 09:04:18 09:11:27 65° 104° (ESE) 09:18:33 435.675
AO-73 21 Jul 09:07:57 09:10:33 16° 88° (E) 09:13:06 145.935
XW-2B 21 Jul 09:10:21 09:13:09 20° 298° (WNW) 09:15:57 145.730 - 145.750
XW-2A 21 Jul 09:19:15 09:22:37 73° 104° (ESE) 09:25:56 145.665 - 145.685
AAUSAT CUBESAT 2 21 Jul 09:21:18 09:25:12 37° 97° (E) 09:29:05 437.432
DOVE 4 21 Jul 09:22:26 09:25:33 16° 308° (NW) 09:28:39 437.250
M-CUBED/EXP-1 PRIME 21 Jul 09:26:45 09:29:36 21° 53° (NE) 09:32:39 437.505
YUBILEINY 21 Jul 09:26:55 09:33:23 24° 285° (WNW) 09:39:49 435.215
XW-2C 21 Jul 09:28:00 09:30:05 14° 302° (WNW) 09:32:10 145.795 - 145.815
PRISM 21 Jul 09:34:43 09:38:07 26° 62° (ENE) 09:41:33 437.425
UWE-3 21 Jul 09:35:24 09:39:36 51° 99° (E) 09:43:41 435.000/436.395/437.385
CUTE 1.7 + AOD 2 21 Jul 09:37:18 09:41:27 54° 290° (WNW) 09:45:35 437.475
CUTE-I 21 Jul 09:40:49 09:45:16 27° 303° (WNW) 09:49:41 437.470
UNISAT 6 21 Jul 09:45:31 09:49:48 38° 66° (ENE) 09:54:03 437.425
NUDT-PHONESAT 21 Jul 09:56:26 09:56:48 10° 305° (NW) 09:57:09 437.300
SEEDS 21 Jul 09:58:46 10:02:51 50° 291° (WNW) 10:06:56 437.485
ZACube-1 21 Jul 09:59:57 10:04:04 52° 99° (E) 10:08:08 437.345
CUBEBUG 2 21 Jul 10:03:44 10:08:03 56° 290° (WNW) 10:12:12 437.445
PCSat 21 Jul 10:05:48 10:10:14 25° 336° (NNW) 10:14:42 145.827
SO-50 21 Jul 10:05:59 10:10:26 55° 321° (NW) 10:14:54 436.795
TIGRISAT 21 Jul 10:30:44 10:35:24 84° 74° (ENE) 10:40:00 435.000
AO-7 21 Jul 10:33:13 10:35:45 12° 354° (N) 10:38:19 .
Oscar 11 21 Jul 10:34:34 10:38:54 80° 104° (ESE) 10:43:13 .
AO-73 21 Jul 10:43:06 10:47:17 68° 288° (WNW) 10:51:23 145.935
FO-29 21 Jul 10:44:26 10:51:57 61° 261° (W) 10:59:48 435.910
HO-68 21 Jul 10:52:28 10:58:52 37° 305° (NW) 11:05:15 435.675
XW-2A 21 Jul 10:53:31 10:54:52 12° 302° (WNW) 10:56:12 145.665 - 145.685
AAUSAT CUBESAT 2 21 Jul 10:56:58 11:00:34 29° 296° (WNW) 11:04:09 437.432
M-CUBED/EXP-1 PRIME 21 Jul 11:00:14 11:03:45 50° 254° (WSW) 11:07:35 437.505
DELFI C3 21 Jul 11:06:30 11:10:25 49° 99° (E) 11:14:18 145.870
POLYITAN 1 21 Jul 11:06:32 11:09:37 20° 59° (ENE) 11:12:42 437.675
EO-88 21 Jul 11:08:53 11:12:14 33° 97° (E) 11:15:34 145.990 - 145.960
PRISM 21 Jul 11:09:20 11:13:14 42° 261° (W) 11:17:11 437.425
DUCHIFAT 1 21 Jul 11:11:22 11:14:15 18° 58° (ENE) 11:17:09 145.980
UWE-3 21 Jul 11:12:24 11:15:47 23° 300° (WNW) 11:19:05 435.000/436.395/437.385
QB50P2 21 Jul 11:18:41 11:22:14 26° 62° (ENE) 11:25:46 145.880/145.840
UNISAT 6 21 Jul 11:22:19 11:26:33 34° 264° (W) 11:30:44 437.425
EO-79 21 Jul 11:32:09 11:35:55 31° 64° (ENE) 11:39:41 145.935-145.965
AIST 2D 21 Jul 11:34:49 11:38:15 54° 72° (ENE) 11:41:41 435.315
NANOSAT C BR1 21 Jul 11:35:18 11:39:01 30° 64° (ENE) 11:42:45 145.865
ZACube-1 21 Jul 11:36:50 11:40:04 22° 300° (WNW) 11:43:17 437.345
CUBEBUG 2 21 Jul 11:43:11 11:43:43 10° 310° (NW) 11:44:14 437.445
SO-50 21 Jul 11:48:16 11:51:47 22° 344° (NNW) 11:55:20 436.795
PCSat 21 Jul 11:51:51 11:55:31 18° 2° (N) 11:59:11 145.827
BUGSAT 1 21 Jul 11:58:43 12:01:35 18° 58° (ENE) 12:04:27 437.445
TIGRISAT 21 Jul 12:09:56 12:12:40 15° 273° (W) 12:15:24 435.000
Oscar 11 21 Jul 12:11:47 12:14:31 17° 303° (WNW) 12:17:15 .
AO-7 21 Jul 12:20:52 12:25:08 15° 22° (NNE) 12:29:24 .
AO-73 21 Jul 12:21:26 12:22:43 11° 308° (NW) 12:23:59 145.935
ESTCUBE 1 21 Jul 12:34:16 12:38:19 31° 95° (E) 12:42:21 437.505/2401.250
FO-29 21 Jul 12:34:18 12:38:37 16° 283° (WNW) 12:43:02 435.910
POLYITAN 1 21 Jul 12:40:45 12:45:00 65° 257° (WSW) 12:49:16 437.675
DELFI C3 21 Jul 12:41:50 12:44:55 22° 299° (WNW) 12:48:00 145.870
HO-68 21 Jul 12:41:51 12:44:40 13° 329° (NNW) 12:47:29 435.675
EO-88 21 Jul 12:42:47 12:45:49 25° 296° (WNW) 12:48:50 145.990 - 145.960
DUCHIFAT 1 21 Jul 12:45:13 12:49:28 71° 256° (WSW) 12:53:44 145.980
QB50P2 21 Jul 12:53:43 12:57:49 45° 261° (W) 13:01:58 145.880/145.840
LO-87 21 Jul 13:01:31 13:05:11 88° 288° (WNW) 13:08:47 145.935 - 145.965
Gurwin Techsat 1B 21 Jul 13:02:07 13:06:24 26° 57° (ENE) 13:10:43 435.225
EO-79 21 Jul 13:07:39 13:11:37 36° 263° (W) 13:15:36 145.935-145.965
AIST 2D 21 Jul 13:09:48 13:11:47 14° 271° (W) 13:13:46 435.315
NANOSAT C BR1 21 Jul 13:10:42 13:14:39 37° 263° (W) 13:18:39 145.865
Oscar 19 21 Jul 13:11:47 13:16:30 39° 64° (ENE) 13:21:16 437.125/150
SPROUT 21 Jul 13:29:30 13:33:20 31° 95° (E) 13:37:07 437.525
SO-50 21 Jul 13:30:27 13:33:43 19° 8° (N) 13:37:00 436.795
BUGSAT 1 21 Jul 13:32:14 13:36:28 72° 256° (WSW) 13:40:44 437.445
PCSat 21 Jul 13:36:04 13:40:43 27° 28° (NNE) 13:45:20 145.827
VELOX 1 21 Jul 13:39:53 13:43:58 34° 96° (E) 13:48:02 145.980
NO-84 21 Jul 13:49:55 13:52:33 23° 138° (SE) 13:55:22 435.350 FM
DX 1 21 Jul 14:00:34 14:03:47 19° 91° (E) 14:06:58 434.975-435.025
AO-85 21 Jul 14:01:19 14:03:10 13° 113° (ESE) 14:05:01 145.980
AO-7 21 Jul 14:08:16 14:15:33 35° 47° (NE) 14:22:51 .
ESTCUBE 1 21 Jul 14:11:00 14:15:12 39° 294° (WNW) 14:19:23 437.505/2401.250
BEESAT 3 21 Jul 14:15:42 14:18:18 17° 114° (ESE) 14:20:55 437.485
LO-87 21 Jul 14:36:46 14:38:01 11° 304° (NW) 14:39:15 145.935 - 145.965
Gurwin Techsat 1B 21 Jul 14:40:40 14:45:58 67° 257° (WSW) 14:51:18 435.225
50 SAT 21 Jul 14:45:25 14:48:52 71° 102° (ESE) 14:52:18 437.505
BEESAT 2 21 Jul 14:46:04 14:47:51 13° 111° (ESE) 14:49:39 435.950
Oscar 19 21 Jul 14:51:08 14:55:53 38° 263° (W) 15:00:40 437.125/150
UKube-1 21 Jul 14:52:00 14:56:06 38° 98° (E) 15:00:09 .
ITAMSAT 1 21 Jul 14:53:42 14:58:15 31° 60° (ENE) 15:02:50 435.822/435.867
SPROUT 21 Jul 15:05:21 15:09:17 36° 294° (WNW) 15:13:11 437.525
SO-50 21 Jul 15:11:07 15:15:21 37° 32° (NNE) 15:19:35 436.795
VELOX 1 21 Jul 15:16:21 15:20:26 36° 295° (WNW) 15:24:31 145.980
RS-15 21 Jul 15:16:29 15:21:22 13° 89° (E) 15:26:16 29.354- 29.394
PCSat 21 Jul 15:19:24 15:24:53 83° 51° (NE) 15:30:20 145.827
NO-84 21 Jul 15:26:16 15:29:38 89° 158° (SSE) 15:33:21 435.350 FM
DX 1 21 Jul 15:36:00 15:40:21 61° 290° (WNW) 15:44:40 434.975-435.025
AO-85 21 Jul 15:38:58 15:42:55 86° 135° (SE) 15:46:53 145.980
BEESAT 3 21 Jul 15:51:20 15:55:22 80° 314° (NW) 15:59:27 437.485
AO-7 21 Jul 15:59:16 16:07:40 81° 251° (WSW) 16:16:07 .
50 SAT 21 Jul 16:19:29 16:21:08 13° 302° (WNW) 16:22:49 437.505
BEESAT 21 Jul 16:19:39 16:24:02 35° 97° (E) 16:28:24 436.000
BEESAT 2 21 Jul 16:20:54 16:24:55 79° 131° (SE) 16:29:00 435.950
MOZHAYETS 4 21 Jul 16:22:15 16:26:16 29° 94° (E) 16:30:15
Gurwin Techsat 1B 21 Jul 16:24:59 16:26:57 12° 277° (W) 16:28:56 435.225
UKube-1 21 Jul 16:28:14 16:32:02 30° 297° (WNW) 16:35:49 .
ITUPSAT 1 21 Jul 16:29:47 16:34:20 42° 99° (E) 16:38:51 437.325
ITAMSAT 1 21 Jul 16:32:27 16:37:32 52° 260° (W) 16:42:40 435.822/435.867
CUBESAT XI-V 21 Jul 16:46:17 16:48:25 13° 85° (E) 16:50:33 437.345
